Regional Weather Roundup
Issued by NWS Albany, NY

Home | Current Version | Previous Version | Graphics & Text | Print | Product List | Glossary Off
Versions: 1 2 3 4 5 6 7 8 9 10 11 12 13 14 15 16 17 18 19 20 21 22 23 24 25 26 27 28 29 30 31 32 33 34 35 36 37 38 39 40 41 42 43 44 45 46 47 48 49

000
ASUS41 KALY 061210
RWRALY

NEW YORK STATE HOURLY WEATHER ROUNDUP
NATIONAL WEATHER SERVICE ALBANY NY
800 AM EDT WED MAY 06 2015

NOTE: "FAIR" INDICATES FEW OR NO CLOUDS BELOW 12,000 FEET WITH NO
SIGNIFICANT WEATHER AND/OR NO OBSTRUCTIONS TO VISIBILITY.

NYZ032-033-038>043-046>054-057>066-NYZ062>081-061300-
EAST


CITY           SKY/WX    TMP DP  RH WIND       PRES   REMARKS
ALBANY         PTSUNNY   59  41  51 N3        30.32R
GLENS FALLS    SUNNY     56  41  57 N3        30.31R
POUGHKEEPSIE   LGT RAIN  57  49  74 S3        30.30R
NEWBURGH       CLOUDY    59  48  67 N7        30.33R
MONTGOMERY     CLOUDY    59  46  62 NE5       30.31R
WHITE PLAINS   CLOUDY    60  42  51 N6        30.29R
ISLIP          CLOUDY    62  46  55 N9        30.26R
NEW YORK CITY  CLOUDY    59  50  72 NE10      30.27R
CENTRAL PARK   CLOUDY    66  40  38 NE13G22   30.30R
$$

NYZ005>009-017-018-044>046-055-056-061300-
CENTRAL


CITY           SKY/WX    TMP DP  RH WIND       PRES   REMARKS
FULTON         MOSUNNY   55  40  56 SE3       30.31R
SYRACUSE       PTSUNNY   54  44  69 CALM      30.31R
ROME           MOSUNNY   52  41  66 CALM      30.33R
ELMIRA         CLOUDY    54  52  93 CALM      30.31R
BINGHAMTON     CLOUDY    53  47  79 CALM      30.30R
MONTICELLO     CLOUDY    52  52 100 CALM      30.33R
$$

NYZ026>034-041>043-061300-
NORTH


CITY           SKY/WX    TMP DP  RH WIND       PRES   REMARKS
WATERTOWN      SUNNY     50  44  80 CALM      30.31R
FORT DRUM      NOT AVBL
MASSENA        SUNNY     52  43  71 SW3       30.31R
SARANAC LAKE   SUNNY     44  37  76 SW5       30.31R
PLATTSBURGH    SUNNY     54  41  61 CALM      30.30R
$$

NYZ001>004-010>016-019>021-061300-
WEST


CITY           SKY/WX    TMP DP  RH WIND       PRES   REMARKS
NIAGARA FALLS  PTSUNNY   55  41  59 E6        30.29R
BUFFALO        CLOUDY    56  48  74 NE7       30.29R
DUNKIRK        CLOUDY    55  54  96 NE6       30.27R FOG
JAMESTOWN      CLOUDY    54  52  94 E5        30.27S
WELLSVILLE     LGT RAIN  50  45  83 S8        30.31S
ROCHESTER      PTSUNNY   59  38  45 SE6       30.31S
PENN YAN       CLOUDY    53  50  89 CALM      30.31R
$$

             KEY
       WCI = WIND CHILL INDEX
       VSB = VISIBILITY
       HX  = HEAT INDEX
$$


USA.gov is the U.S. government's official web portal to all federal, state and local government web resources and services.